Mittarfik Nuuk (godthaab, Greenland

4:54 PM WGT on February 19, 2017 (GMT -0300)
Nuuk

Weather History for BGGH - February, 2014

Change the Weather History Date:

Wednesday, February 26, 2014

  Actual Average Record
Temperature  
Mean Temperature 26 °F -  
Max Temperature 37 °F 21 °F 51 °F (2004)
Min Temperature 15 °F 15 °F -9 °F (1998)
Degree Days  
Heating Degree Days 39    
Moisture  
Dew Point 10 °F    
Average Humidity 47    
Maximum Humidity 86    
Minimum Humidity 20    
Precipitation  
Precipitation 0.00 in - - ()
Sea Level Pressure  
Sea Level Pressure 29.09 in    
Wind  
Wind Speed 15 mph ()    
Max Wind Speed 31 mph    
Max Gust Speed -    
Visibility 6.2 miles    
Events Snow    
Averages and records for this station are not official NWS values.
T = Trace of Precipitation, MM = Missing Value Source: Averaged Metar Reports

Daily Weather History Graph

Daily Weather History Graph

Search for Another Location

Airport or City:

Trip Planner

Search our weather history database for the weather conditions in past years. The results will help you decide how hot, cold, wet, or windy it might be!

Date:

Astronomy

Feb. 26, 2014 Rise Set
Actual Time 7:45 AM WGT 5:35 PM WGT
Civil Twilight 6:56 AM WGT 6:24 PM WGT
Nautical Twilight 6:01 AM WGT 7:20 PM WGT
Astronomical Twilight 5:05 AM WGT 8:16 PM WGT
Moon 6:17 AM WGT (2/26) 1:56 PM WGT (2/26)
Length of Visible Light 11h 28m
Length of Day
9h 50m
Waning Crescent, 11% of the Moon is Illuminated
Feb 26
Waning Crescent
Mar 1
New
Mar 8
First Quarter
Mar 16
Full
Mar 23
Last Quarter

Hourly Weather History & Observations

Time (WGT) Temp. Windchill Dew Point Humidity Pressure Visibility Wind Dir Wind Speed Gust Speed Precip Events Conditions
12:00 AM 17 °F - 1 °F 33% 29.16 in 31 mi NE 17.3 mph - -  
12:20 AM 15.8 °F -1.1 °F 5.0 °F 62% 29.15 in 6.2 mi ENE 19.6 mph - N/A   Unknown
12:50 AM 15.8 °F -0.6 °F 3.2 °F 58% 29.12 in 6.2 mi ENE 18.4 mph - N/A   Unknown
1:00 AM 17 °F - 0 °F 32% 29.13 in 31 mi NE 20.7 mph - -   Partly Cloudy
1:20 AM 15.8 °F -0.2 °F 3.2 °F 58% 29.12 in 6.2 mi ENE 17.3 mph - N/A   Mostly Cloudy
1:50 AM 15.8 °F -0.6 °F 3.2 °F 58% 29.09 in 6.2 mi ENE 18.4 mph - N/A   Mostly Cloudy
2:00 AM 17 °F - 1 °F 33% 29.10 in 31 mi NE 19.6 mph - -  
2:20 AM 15.8 °F -0.2 °F 3.2 °F 58% 29.09 in 6.2 mi ENE 17.3 mph - N/A   Mostly Cloudy
2:50 AM 15.8 °F 0.3 °F 3.2 °F 58% 29.09 in 6.2 mi ENE 16.1 mph - N/A   Partly Cloudy
3:00 AM 18 °F - -0 °F 29% 29.08 in 31 mi NE 13.8 mph - -   Partly Cloudy
3:20 AM 17.6 °F 2.7 °F 5.0 °F 58% 29.09 in 6.2 mi ENE 16.1 mph - N/A   Scattered Clouds
3:50 AM 17.6 °F 2.7 °F 5.0 °F 58% 29.06 in 6.2 mi ENE 16.1 mph - N/A   Mostly Cloudy
4:00 AM 19 °F - 3 °F 34% 29.07 in 31 mi NE 13.8 mph - -   Mostly Cloudy
4:20 AM 15.8 °F 0.9 °F 6.8 °F 68% 29.06 in 6.2 mi NE 15.0 mph - N/A   Scattered Clouds
4:50 AM 19.4 °F 5.5 °F 5.0 °F 54% 29.06 in 6.2 mi NE 15.0 mph - N/A   Scattered Clouds
5:00 AM 20 °F - 7 °F 42% 29.07 in 31 mi NNE 11.5 mph - -   Mostly Cloudy
5:20 AM 19.4 °F 6.6 °F 8.6 °F 63% 29.06 in 6.2 mi NE 12.7 mph - N/A   Mostly Cloudy
5:50 AM 17.6 °F 7.3 °F 14.0 °F 86% 29.06 in 6.2 mi NNE 8.1 mph - N/A   Mostly Cloudy
6:00 AM 20 °F - 10 °F 51% 29.06 in 31 mi North 13.8 mph - -   Mostly Cloudy
6:50 AM 17.6 °F 5.0 °F 10.4 °F 73% 29.06 in 6.2 mi North 11.5 mph - N/A   Overcast
7:00 AM 20 °F - 6 °F 39% 29.05 in 31 mi North 15.0 mph - -   Partly Cloudy
7:50 AM 17.6 °F 5.7 °F 8.6 °F 68% 29.06 in 6.2 mi North 10.4 mph - N/A   Mostly Cloudy
8:00 AM 20 °F - 3 °F 33% 29.07 in 31 mi North 12.7 mph - -   Mostly Cloudy
8:50 AM 17.6 °F 7.3 °F 12.2 °F 79% 29.06 in 6.2 mi North 8.1 mph - N/A   Mostly Cloudy
9:00 AM 20 °F - 3 °F 32% 29.06 in 31 mi North 11.5 mph - -   Mostly Cloudy
9:50 AM 19.4 °F 11.5 °F 10.4 °F 68% 29.06 in 6.2 mi NE 5.8 mph - N/A   Mostly Cloudy
10:00 AM 21 °F - 5 °F 35% 29.08 in 31 mi North 9.2 mph - -   Partly Cloudy
10:50 AM 21.2 °F 10.9 °F 8.6 °F 58% 29.06 in 6.2 mi NE 9.2 mph - N/A   Overcast
11:00 AM 21 °F - 6 °F 37% 29.08 in 31 mi North 9.2 mph - -   Scattered Clouds
12:00 PM 23 °F - 7 °F 36% 29.07 in 31 mi North 11.5 mph - -   Scattered Clouds
12:50 PM 24.8 °F 14.6 °F 10.4 °F 54% 29.09 in 6.2 mi NNE 10.4 mph - N/A   Mostly Cloudy
1:00 PM 24 °F - 11 °F 44% 29.08 in 31 mi North 11.5 mph - -   Scattered Clouds
1:50 PM 23.0 °F 13.1 °F 17.6 °F 80% 29.06 in 6.2 mi North 9.2 mph - N/A   Mostly Cloudy
2:00 PM 25 °F - 11 °F 42% 29.08 in 31 mi North 15.0 mph - -   Scattered Clouds
2:50 PM 28.4 °F 17.0 °F 15.8 °F 59% 29.06 in 6.2 mi NE 15.0 mph - N/A   Mostly Cloudy
3:00 PM 25 °F - 15 °F 52% 29.08 in 31 mi North 13.8 mph - -   Scattered Clouds
3:50 PM 32.0 °F 20.5 °F 15.8 °F 51% 29.09 in 6.2 mi NE 18.4 mph - N/A   Mostly Cloudy
4:00 PM 30 °F - 17 °F 47% 29.08 in 31 mi NE 17.3 mph - -   Partly Cloudy
4:50 PM 35.6 °F 22.7 °F 14.0 °F 41% 29.09 in 6.2 mi ENE 28.8 mph - N/A   Mostly Cloudy
5:00 PM 35 °F - 12 °F 24% 29.08 in 31 mi ENE 19.6 mph - -   Partly Cloudy
5:50 PM 35.6 °F 24.0 °F 14.0 °F 41% 29.09 in 6.2 mi ENE 23.0 mph - N/A   Mostly Cloudy
6:00 PM 36 °F - 11 °F 22% 29.09 in 31 mi East 20.7 mph - -   Mostly Cloudy
6:20 PM 33.8 °F 21.6 °F 17.6 °F 52% 29.09 in 6.2 mi ENE 23.0 mph - N/A   Mostly Cloudy
6:50 PM 33.8 °F 21.6 °F 15.8 °F 48% 29.09 in 6.2 mi ENE 23.0 mph - N/A   Mostly Cloudy
7:00 PM 36 °F - 10 °F 20% 29.09 in 31 mi ENE 19.6 mph - -   Mostly Cloudy
7:20 PM 33.8 °F 22.8 °F 15.8 °F 48% 29.09 in 6.2 mi ENE 18.4 mph - N/A   Mostly Cloudy
7:50 PM 35.6 °F 22.3 °F 14.0 °F 41% 29.09 in 6.2 mi East 31.1 mph - N/A   Mostly Cloudy
8:00 PM 36 °F - 11 °F 21% 29.10 in 31 mi ESE 4.6 mph - -   Scattered Clouds
8:20 PM 35.6 °F 24.0 °F 14.0 °F 41% 29.09 in 6.2 mi East 23.0 mph - N/A   Mostly Cloudy
8:50 PM 37.4 °F 25.9 °F 14.0 °F 38% 29.09 in 6.2 mi East 25.3 mph - N/A   Mostly Cloudy
9:00 PM 37 °F - 12 °F 22% 29.11 in 31 mi NNW 12.7 mph - -   Partly Cloudy
9:20 PM 35.6 °F 22.3 °F 15.8 °F 44% 29.12 in 5.6 mi ENE 31.1 mph - N/A Snow Light Snow Showers
9:50 PM 33.8 °F 21.6 °F 15.8 °F 48% 29.12 in 6.2 mi ENE 23.0 mph - N/A   Mostly Cloudy
10:00 PM 37 °F - 10 °F 20% 29.11 in 31 mi ENE 21.9 mph - -   Scattered Clouds
10:20 PM 35.6 °F 24.8 °F 14.0 °F 41% 29.12 in 6.2 mi East 19.6 mph - N/A   Mostly Cloudy
10:50 PM 33.8 °F 22.8 °F 15.8 °F 48% 29.12 in 6.2 mi East 18.4 mph - N/A   Mostly Cloudy
11:00 PM 36 °F - 10 °F 21% 29.12 in 31 mi ENE 12.7 mph - -   Scattered Clouds
11:20 PM 33.8 °F 23.2 °F 15.8 °F 48% 29.12 in 6.2 mi ENE 17.3 mph - N/A   Mostly Cloudy
11:50 PM 35.6 °F 25.2 °F 14.0 °F 41% 29.12 in 6.2 mi East 18.4 mph - N/A   Scattered Clouds